Volver al catálogo

STARLINK-5455

ActivoComunicacionesVLEO
NORAD 55668·PAYLOAD·🇺🇸 United States

Lanzado Feb 17, 2023 desde Vandenberg Space Force Base

Loading…

Próximos Pases (próximas 24 horas)

TLE

ActualizadoSource: CelesTrak SupGP

Época: Sep 15, 2026, 03:01 UTC

1 55668C 23021AS  26258.12618056 -.00026198  00000+0 -21960-2 0  2585
2 55668  70.0021  46.8781 0002982 269.3190 276.6092 14.98335691    19

Sigue STARLINK-5455 en tiempo real con AllMySat

Download on the App Store